McAllen, TX

5:19 PM CDT on July 29, 2016 (GMT -0500)
McAllen Miller International

Weather History for KMFE - December, 2012

Change the Weather History Date:

Wednesday, December 5, 2012

  Actual Average Record
Temperature  
Mean Temperature 70 °F 64 °F  
Max Temperature 81 °F 74 °F 94 °F (1953)
Min Temperature 59 °F 54 °F 33 °F (2009)
Degree Days  
Heating Degree Days 0 4  
Month to date heating degree days 0 20  
Since 1 July heating degree days 15 80  
Cooling Degree Days 5 3  
Month to date cooling degree days 52 17  
Year to date cooling degree days 5141 4386  
Growing Degree Days 20 (Base 50)    
Moisture  
Dew Point 55 °F    
Average Humidity 59    
Maximum Humidity 90    
Minimum Humidity 28    
Precipitation  
Precipitation T in 0.04 in 0.35 in (1979)
Month to date precipitation T 0.16  
Year to date precipitation 17.47 21.17  
Sea Level Pressure  
Sea Level Pressure 30.12 in    
Wind  
Wind Speed 9 mph (North)    
Max Wind Speed 17 mph    
Max Gust Speed 22 mph    
Visibility 10 miles    
Events Rain    
T = Trace of Precipitation, MM = Missing Value Source: NWS Daily Summary

Daily Weather History Graph

Daily Weather History Graph

Search for Another Location

Airport or City:

Trip Planner

Search our weather history database for the weather conditions in past years. The results will help you decide how hot, cold, wet, or windy it might be!

Date:

Astronomy

Dec. 05, 2012 Rise Set
Actual Time 7:06 AM CST 5:41 PM CST
Civil Twilight 6:41 AM CST 6:06 PM CST
Nautical Twilight 6:12 AM CST 6:34 PM CST
Astronomical Twilight 5:44 AM CST 7:02 PM CST
Moon No Moon Rise 11:56 AM CST (12/5)
Length of Visible Light 11h 24m
Length of Day
10h 34m
Waning Gibbous, 59% of the Moon is Illuminated
Dec 5
Waning Gibbous
Dec 6
Last Quarter
Dec 13
New
Dec 19
First Quarter
Dec 28
Full

Hourly Weather History & Observations

Time (CST) Temp. Dew Point Humidity Pressure Visibility Wind Dir Wind Speed Gust Speed Precip Events Conditions
12:30 AM 73.4 °F 68.0 °F 83% 30.13 in 10.0 mi North 8.1 mph - 0.00 in Rain Light Rain
12:53 AM 73.9 °F 66.0 °F 76% 30.12 in 10.0 mi North 13.8 mph - 0.00 in   Mostly Cloudy
1:04 AM 73.4 °F 66.2 °F 78% 30.12 in 10.0 mi NNE 12.7 mph - N/A   Mostly Cloudy
1:53 AM 73.0 °F 64.9 °F 76% 30.12 in 10.0 mi North 9.2 mph - N/A   Partly Cloudy
2:53 AM 71.1 °F 64.0 °F 78% 30.13 in 10.0 mi North 13.8 mph - N/A   Clear
3:53 AM 69.1 °F 62.1 °F 78% 30.13 in 10.0 mi North 15.0 mph - N/A   Clear
4:33 AM 68.0 °F 60.8 °F 78% 30.15 in 10.0 mi North 10.4 mph - N/A   Mostly Cloudy
4:53 AM 68.0 °F 61.0 °F 78% 30.15 in 10.0 mi North 8.1 mph - N/A   Overcast
5:03 AM 68.0 °F 60.8 °F 78% 30.16 in 10.0 mi North 11.5 mph - N/A   Overcast
5:53 AM 66.0 °F 59.0 °F 78% 30.16 in 10.0 mi North 10.4 mph - N/A   Mostly Cloudy
6:01 AM 66.2 °F 59.0 °F 78% 30.17 in 10.0 mi North 10.4 mph - N/A   Scattered Clouds
6:53 AM 64.0 °F 57.9 °F 80% 30.19 in 10.0 mi North 10.4 mph - N/A   Clear
8:53 AM 66.0 °F 52.0 °F 60% 30.22 in 10.0 mi NNW 9.2 mph - N/A   Clear
9:53 AM 69.1 °F 51.1 °F 53% 30.22 in 10.0 mi NNW 8.1 mph - N/A   Clear
10:53 AM 72.0 °F 52.0 °F 49% 30.21 in 10.0 mi NW 6.9 mph - N/A   Clear
11:53 AM 73.9 °F 52.0 °F 46% 30.18 in 10.0 mi North 6.9 mph - N/A   Clear
12:53 PM 78.1 °F 50.0 °F 37% 30.13 in 10.0 mi NNW 12.7 mph 16.1 mph N/A   Clear
1:53 PM 79.0 °F 48.0 °F 34% 30.09 in 10.0 mi NW 12.7 mph - N/A   Clear
2:53 PM 80.1 °F 46.9 °F 31% 30.06 in 10.0 mi NW 11.5 mph - N/A   Clear
3:53 PM 80.1 °F 45.0 °F 29% 30.05 in 10.0 mi NNE 10.4 mph - N/A   Clear
4:53 PM 78.1 °F 44.1 °F 30% 30.05 in 10.0 mi North 8.1 mph - N/A   Clear
5:53 PM 73.9 °F 46.0 °F 37% 30.04 in 10.0 mi NNE 5.8 mph - N/A   Clear
6:53 PM 72.0 °F 46.9 °F 41% 30.05 in 10.0 mi NNE 4.6 mph - N/A   Clear
7:53 PM 71.1 °F 46.9 °F 42% 30.06 in 10.0 mi ENE 4.6 mph - N/A   Clear
8:53 PM 64.9 °F 53.1 °F 65% 30.07 in 10.0 mi ESE 5.8 mph - N/A   Clear
9:53 PM 61.0 °F 54.0 °F 78% 30.08 in 10.0 mi SE 4.6 mph - N/A   Clear
10:53 PM 60.1 °F 54.0 °F 80% 30.07 in 10.0 mi Calm Calm - N/A   Clear
11:53 PM 59.0 °F 55.0 °F 87% 30.05 in 9.0 mi Calm Calm - N/A   Clear